sat.trackr.live / text

‹ back to catalog

STARLINK-34638

NORAD 64762 · 2025-147H

PAYLOAD ACTIVE UNKNOWN

§ Identity

Operator
Country
US
Launch date
2025-07-08
Launch site
AFETR
Launch vehicle
Mass (kg)
RCS (m²)

Purposes: comms

External: N2YO · Heavens-Above · Gunter

§ Orbital elements

Epoch: 2026-09-20T17:24:04.343328Z

Period
93.85 min
Inclination
53.1592°
Eccentricity
0.0000647
Mean motion
15.34404859 rev/d
Perigee alt
462.2 km
Apogee alt
463.1 km
Semi-major
6,840.8 km
B*
7.5279e-4
RAAN
52.5004°
Arg perigee
53.6759°
Mean anomaly
306.4303°
Rev number
6,867

§ Raw data

STARLINK-346381 64762U 25147H   26263.72505027  .00025147  00000+0  75279-3 0  99922 64762  53.1592  52.5004 0000647  53.6759 306.4303 15.34404859 68679

JSON: /api/v1/satellites/64762 · /tle

For live sub-satellite position, see the globe view (requires WebGL).

§ Visibility from observer

Set your observer location to see the next 7 days of passes ≥ 10°. The values pass through the URL so the page stays shareable.

No JS? Fill the form by hand. The geolocation button needs JavaScript.